World > North America > United States > New York

Solon Pond, New York Regional Weather

Lat: 42.62N, Lon: 75.92W
Wx Zone: NYZ044Web Search

Did you know? You can add this page to Bookmarks by pressing the Ctrl key & d key at the same time. Mac users press command & d.

Feedback


°F Click to change Solon Pond hourly weather to Imperial units.Click to change Solon Pond hourly weather to Metric units. °C
Solon Pond Weather Map
UTC Time: 6/17/2021, 08:02
Your Time:

Solon Pond, NY Regional Weather

Expires:202106170800;;393192
ASUS41 KBGM 170710
RWRBGM

REGIONAL WEATHER ROUNDUP
NATIONAL WEATHER SERVICE BINGHAMTON NY
300 AM EDT THU JUN 17 2021

Note: "fair" indicates few or no clouds below 12,000 feet with no
significant weather and/or obstructions to visibility.

* = Station(s) that does not report precipitation, such as rain, 
snow, etc, also no thunder or fog.


NYZ009-015>018-022>025-036-037-044>046-055>057-062-170800
...Central New York...
  
CITY           SKY/WX    TMP DP  RH WIND       PRES   REMARKS
Binghamton     CLEAR     48  36  63 W5        29.98S                  
Cortland       FAIR      39  37  93 CALM      29.99F                  
Dansville      CLEAR     46  42  86 SE5       30.02F                  
Elmira         CLEAR     46  41  82 VRB5      30.01R                  
Ithaca         CLEAR     43  42  97 CALM      30.00S                  
Hamilton       FAIR      41  41 100 CALM      29.98S                  
Monticello     PTCLDY    41  36  82 CALM      29.99S                  
Penn Yan       CLEAR     55  39  54 SW5       29.99S                  
Rome           CLEAR     44  41  89 CALM      29.97S                  
Skaneateles    FAIR      52  45  76 W7        29.98S                  
Syracuse       CLEAR     55  41  59 SW8       29.96S                  
$$
 

SKY/WX - Weather  TMP - Temperature  DP - Dew Point  RH - Relative Humidity
WIND - Wind Direction/Speed PRES - Barometric Pressure VSB - Visibility
WCI - Wind Chill Index E13G22 Wind - East Wind 13 mph/Gusts of 22 mph